TimeMDT,TemperatureF,Dew PointF,Humidity,Sea Level PressureIn,VisibilityMPH,Wind Direction,Wind SpeedMPH,Gust SpeedMPH,PrecipitationIn,Events,Conditions,WindDirDegrees,DateUTC
12:53 AM,35.1,-2.9,20,29.96,10.0,Calm,Calm,-,N/A,,Clear,0,2012-10-08 06:53:00
1:53 AM,30.9,-4.0,22,29.99,10.0,ENE,4.6,-,N/A,,Clear,60,2012-10-08 07:53:00
2:53 AM,35.1,-0.0,23,29.94,10.0,Calm,Calm,-,N/A,,Clear,0,2012-10-08 08:53:00
3:53 AM,34.0,-0.0,24,29.95,10.0,Calm,Calm,-,N/A,,Clear,0,2012-10-08 09:53:00
4:53 AM,32.0,1.0,27,29.97,10.0,Calm,Calm,-,N/A,,Clear,0,2012-10-08 10:53:00
5:53 AM,28.9,-0.0,29,30.01,10.0,Calm,Calm,-,N/A,,Clear,0,2012-10-08 11:53:00
6:53 AM,27.0,-0.9,30,30.06,10.0,Calm,Calm,-,N/A,,Clear,0,2012-10-08 12:53:00
7:53 AM,30.9,-0.9,26,30.12,10.0,Calm,Calm,-,N/A,,Clear,0,2012-10-08 13:53:00
8:53 AM,42.1,3.0,20,30.11,10.0,Calm,Calm,-,N/A,,Clear,0,2012-10-08 14:53:00
9:53 AM,48.9,3.9,16,30.08,10.0,Calm,Calm,-,N/A,,Clear,0,2012-10-08 15:53:00
10:53 AM,57.9,8.1,14,29.99,10.0,Calm,Calm,-,N/A,,Clear,0,2012-10-08 16:53:00
11:53 AM,68.0,12.9,12,29.91,10.0,WSW,13.8,-,N/A,,Clear,240,2012-10-08 17:53:00
12:53 PM,69.1,21.9,17,29.93,10.0,WSW,16.1,21.9,N/A,,Clear,240,2012-10-08 18:53:00
1:53 PM,71.1,21.9,16,29.91,10.0,WSW,15.0,24.2,N/A,,Clear,240,2012-10-08 19:53:00
2:53 PM,71.1,24.1,17,29.86,10.0,WSW,18.4,25.3,N/A,,Clear,240,2012-10-08 20:53:00
3:53 PM,72.0,21.0,15,29.85,10.0,SW,15.0,20.7,N/A,,Clear,220,2012-10-08 21:53:00
4:53 PM,72.0,21.0,15,29.86,10.0,West,16.1,24.2,N/A,,Clear,260,2012-10-08 22:53:00
5:53 PM,69.1,21.0,16,29.91,10.0,West,13.8,-,N/A,,Clear,260,2012-10-08 23:53:00
6:53 PM,64.9,21.9,19,29.95,10.0,West,9.2,-,N/A,,Clear,260,2012-10-09 00:53:00
7:53 PM,59.0,21.0,23,29.98,10.0,Calm,Calm,-,N/A,,Clear,0,2012-10-09 01:53:00
8:53 PM,53.1,19.9,27,29.95,10.0,Calm,Calm,-,N/A,,Clear,0,2012-10-09 02:53:00
9:53 PM,50.0,19.9,31,29.94,10.0,Calm,Calm,-,N/A,,Clear,0,2012-10-09 03:53:00
11:53 PM,43.0,19.0,38,29.87,10.0,Calm,Calm,-,N/A,,Clear,0,2012-10-09 05:53:00